User: anonymous   Login
Location: Unspecified
(0.0000°N, 0.0000°E)
Time: 19:22:04
(UTC+00:00)
Language:

STARLINK-30496 - Orbit

View from above orbital plane
View from above orbital plane
View from above satellite
View from above satellite

Ground track
Ground track

The orbit is defined by the following mean orbital elements,

1 57919U          26145.62118818 +.00000000 +00000-0 -70573-6 0 00006
2 57919  43.0018 250.7463 0001277 290.3161  69.7553 15.27585408    05
Epoch (UTC): 25 May 2026 14:54:30
Eccentricity: 0.0001277
inclination: 43.0018°
perigee height: 482 km
apogee height: 484 km
right ascension of ascending node: 250.7463°
argument of perigee: 290.3161°
revolutions per day: 15.27585408
mean anomaly at epoch: 69.7553°

The dashed part of the orbit path shows where the satellite is in the earth's shadow,  

DLR